Regional Weather Roundup
Issued by NWS Little Rock, AR

Home | Current Version | Previous Version | Text Only | Print | Product List | Glossary On
Versions: 1 2 3 4 5 6 7 8 9 10 11 12 13 14 15 16 17 18 19 20 21 22 23 24 25 26 27 28 29 30 31 32 33 34 35 36 37 38 39 40 41 42 43
000
ASUS44 KLZK 020005
RWRLZK

WEATHER ROUNDUP FOR ARKANSAS
NATIONAL WEATHER SERVICE LITTLE ROCK AR
700 PM CDT SAT AUG 01 2015

NOTE: "FAIR" INDICATES FEW OR NO CLOUDS BELOW 12,000 FEET WITH NO
SIGNIFICANT WEATHER AND/OR OBSTRUCTIONS TO VISIBILITY.

ARZ001-003-010-029-020100-
NORTHWEST ARKANSAS

CITY           SKY/WX    TMP DP  RH WIND       PRES   REMARKS
FAYETTEVILLE   MOSUNNY   85  69  58 SW5       30.00F HX  89
6HR MIN TEMP:  85; 6HR MAX TEMP:  89;

FORT SMITH     SUNNY     93  59  31 NE5       29.95F HX  92
6HR MIN TEMP:  92; 6HR MAX TEMP:  96;

HARRISON       SUNNY     89  62  40 CALM      30.01F HX  89
6HR MIN TEMP:  88; 6HR MAX TEMP:  91;

BENTONVILLE    SUNNY     88  66  48 W6        30.02S HX  90
6HR MIN TEMP:  88; 6HR MAX TEMP:  91;

ROGERS         MOSUNNY   85  70  60 MISG      30.02S HX  89
6HR MIN TEMP:  85; 6HR MAX TEMP:  91;

SILOAM SPGS    SUNNY     88  64  45 W8          N/A  HX  89
6HR MIN TEMP:  88; 6HR MAX TEMP:  91;

HIGHFILL       SUNNY     84  72  67 SW5       30.01F HX  89
6HR MIN TEMP:  83; 6HR MAX TEMP:  93;

SPRINGDALE     MOSUNNY   88  64  45 SW7       30.03F HX  89
$$

ARZ004-005-016-020100-
NORTH CENTRAL ARKANSAS

CITY           SKY/WX    TMP DP  RH WIND       PRES   REMARKS
BATESVILLE     SUNNY     90  70  51 W3        29.96F HX  95
6HR MIN TEMP:  90; 6HR MAX TEMP:  93;

FLIPPIN        SUNNY     90  64  43 SE3       29.98S HX  91
6HR MIN TEMP:  90; 6HR MAX TEMP:  93;

MTN HOME       SUNNY     86  70  58 CALM      29.99F HX  90
6HR MIN TEMP:  86; 6HR MAX TEMP:  91;

$$

ARZ040-041-020100-
WEST CENTRAL ARKANSAS

CITY           SKY/WX    TMP DP  RH WIND       PRES   REMARKS
MENA           SUNNY     95  50  21 E3        29.98F HX  92
MOUNT IDA      CLOUDY    89  62  40 CALM      29.95F HX  89
6HR MIN TEMP:  89; 6HR MAX TEMP:  98;

$$

ARZ009-017-025-026-028-020100-
NORTHEAST ARKANSAS

CITY           SKY/WX    TMP DP  RH WIND       PRES   REMARKS
JONESBORO      SUNNY     89  66  46 CALM      29.95F HX  91
6HR MIN TEMP:  89; 6HR MAX TEMP:  92;

NEWPORT        SUNNY     91  72  53 CALM      29.96F HX  98
6HR MIN TEMP:  90; 6HR MAX TEMP:  94;

WALNUT RIDGE   SUNNY     91  57  31 CALM      29.94F HX  90
6HR MIN TEMP:  90; 6HR MAX TEMP:  93;

BLYTHEVILLE    SUNNY     87  70  56 CALM      29.95F HX  92
6HR MIN TEMP:  87; 6HR MAX TEMP:  93;

$$

ARZ022-023-033-042-044-020100-
CENTRAL ARKANSAS

CITY           SKY/WX    TMP DP  RH WIND       PRES   REMARKS
LITTLE ROCK    MOSUNNY   91  61  35 SE6       29.95F HX  91
6HR MIN TEMP:  92; 6HR MAX TEMP:  96;

N LITTLE ROCK  MOSUNNY   92  63  38 S7        29.95F HX  92
6HR MIN TEMP:  92; 6HR MAX TEMP:  98;

JACKSONVILLE   MOSUNNY   94  63  36 VRB6      29.95F HX  95
6HR MIN TEMP:  94; 6HR MAX TEMP:  98;

SEARCY         SUNNY     93  66  40 VRB5      29.97S HX  96
6HR MIN TEMP:  93; 6HR MAX TEMP:  97;

HOT SPRINGS    MOSUNNY   93  58  30 S5        29.95F HX  92
6HR MIN TEMP:  93; 6HR MAX TEMP:  98;

RUSSELLVILLE   SUNNY     93  61  34 SE5       29.94F HX  93
6HR MIN TEMP:  92; 6HR MAX TEMP:  97;

CLINTON        FAIR      88  72  58 CALM      29.98S HX  94
$$

ARZ036-020100-
EAST ARKANSAS

CITY           SKY/WX    TMP DP  RH WIND       PRES   REMARKS
WEST MEMPHIS   SUNNY     90  66  45 N5        29.94F HX  92
6HR MIN TEMP:  90; 6HR MAX TEMP:  94;

$$

ARZ050-053-066-070-073-020100-
SOUTHWEST ARKANSAS

CITY           SKY/WX    TMP DP  RH WIND       PRES   REMARKS
ARKADELPHIA    FAIR      95  62  33 S5        29.94F HX  95
6HR MIN TEMP:  95; 6HR MAX TEMP:  99;

CAMDEN         SUNNY     93  55  27 E3        29.94S HX  91
TEXARKANA      SUNNY     92  59  33 VRB3      29.95F HX  91
6HR MIN TEMP:  91; 6HR MAX TEMP:  96;

EL DORADO      SUNNY     93  58  30 N5        29.94F HX  92
6HR MIN TEMP:  92; 6HR MAX TEMP:  96;

DE QUEEN       SUNNY     91  63  39 SW6       29.93F HX  92
6HR MIN TEMP:  91; 6HR MAX TEMP:  95;

$$

ARZ056-057-069-020100-
SOUTHEAST ARKANSAS

CITY           SKY/WX    TMP DP  RH WIND       PRES   REMARKS
PINE BLUFF     SUNNY     91  67  44 E5        29.95F HX  94
6HR MIN TEMP:  91; 6HR MAX TEMP:  96;

STUTTGART      SUNNY     91  63  38 MISG      29.95F HX  92
6HR MIN TEMP:  91; 6HR MAX TEMP:  95;

MONTICELLO     SUNNY     92  63  38 VRB3      29.94F HX  93
6HR MIN TEMP:  92; 6HR MAX TEMP:  96;


$$




USA.gov is the U.S. government's official web portal to all federal, state and local government web resources and services.